Regional Weather Roundup
Issued by NWS Upton, NY

Current Version | Previous Version | Graphics & Text | Print | Product List | Glossary Off
Versions: 1 2 3 4 5 6 7 8 9 10 11 12 13 14 15 16 17 18 19 20 21 22 23 24 25 26 27 28

000
ASUS41 KOKX 231609
RWROKX

REGIONAL WEATHER ROUNDUP
NATIONAL WEATHER SERVICE NEW YORK NY
1100 AM EST THU NOV 23 2017

NOTE: "FAIR" INDICATES FEW OR NO CLOUDS BELOW 12,000 FEET WITH NO
SIGNIFICANT WEATHER AND/OR OBSTRUCTIONS TO VISIBILITY.

NYZ071-072-176-178-NJZ106-104-231700-
NEW YORK CITY METRO AREA

CITY           SKY/WX    TMP DP  RH WIND       PRES   REMARKS
Central Park   SUNNY     36  19  50 MISG      30.12F
Bronx Bot Gard   N/A     37  19  48 NW7       30.10F WCI  32
Bronx Lehman C   N/A     37  32  81 NW3         N/A
LaGuardia APRT MOSUNNY   39  21  48 NW9       30.10F WCI  33
Queens College   N/A     36  32  87 NW9         N/A  WCI  29
Kennedy INTL   MOSUNNY   39  21  48 N10       30.11F WCI  32
Breezy Point     N/A     36 N/A N/A NW8         N/A  WCI  29
Brooklyn Coll    N/A     37  32  81 W8          N/A  WCI  31
Staten Island    N/A     36  32  87 NW6         N/A  WCI  31
Newark/Liberty MOSUNNY   40  20  44 NW7       30.10F
Teterboro      SUNNY     38  19  46 W7        30.09F WCI  33
$$

NYZ177-179-078>081-231700-
LONG ISLAND NEW YORK

CITY           SKY/WX    TMP DP  RH WIND       PRES   REMARKS
Jones Beach      N/A     37 N/A N/A NW6         N/A  WCI  33
Wantagh          N/A     37  32  81 NW8         N/A  WCI  31
Matinecock PT  NOT AVBL
Farmingdale    SUNNY     39  21  48 NW9       30.09F WCI  33
MacArthur/ISP  MOSUNNY   39  21  48 N9        30.08F WCI  33
Shirley        SUNNY     39  24  55 W9        30.08F WCI  33
Mt Sinai Harb    N/A    N/A N/A N/A NW7G13      N/A
Westhampton    CLOUDY    39  23  52 VRB7      30.08F WCI  34
East Hampton   FAIR      37  24  58 W7        30.07F WCI  31
Southold         N/A     37  32  81 NW8         N/A  WCI  31
Montauk          N/A     39  25  57 NW8       30.07F WCI  33
$$

NYZ052-065-067-231700-
HUDSON VALLEY

CITY           SKY/WX    TMP DP  RH WIND       PRES   REMARKS
White Plains   SUNNY     36  18  48 NW10      30.06F WCI  28
Larchmont Harb   N/A     36 N/A N/A W6          N/A  WCI  31
Croton On Huds NOT AVBL
Somers           N/A     36  32  87 N3          N/A
Brewster         N/A     36  32  87 NW9         N/A  WCI  29
Newburgh       SUNNY     32  21  64 CALM      30.09F
Montgomery     SUNNY     38  18  44 NW6       30.07F WCI  33
Suffern          N/A     36  32  87 NW7         N/A  WCI  30
Poughkeepsie   SUNNY     36  18  48 W5        30.09F WCI  32
Albany         PTSUNNY   33  18  53 NW13      30.10F WCI  24
$$

NJZ001-105-106-008-010-013-015-019>022-104-231700-
NEW JERSEY

CITY           SKY/WX    TMP DP  RH WIND       PRES   REMARKS
Newark/Liberty MOSUNNY   40  20  44 NW7       30.10F
Teterboro      SUNNY     38  19  46 W7        30.09F WCI  33
Caldwell       SUNNY     37  18  46 W7        30.10F WCI  32
Somerville     SUNNY     38  20  48 NW10      30.10F WCI  31
Linden         FAIR      38  19  46 CALM      30.11F
Perth Amboy      N/A     34 N/A N/A NW7         N/A  WCI  28
Sussex         SUNNY     37  21  52 W7        30.09F WCI  32
Andover          N/A     36  20  52 N7        30.09F WCI  30
Trenton        SUNNY     37  20  50 NW8       30.11F WCI  31
Millville      CLOUDY    36  22  56 NW9       30.14F WCI  29
Atlantic City  MOSUNNY   36  21  54 NW8       30.13F WCI  30
Wrightstown    SUNNY     38  21  50 NW7       30.09F WCI  32
Toms River     CLOUDY    35  20  54 N7        30.12F WCI  29
Belmar         SUNNY     37  20  50 NW7       30.11F WCI  32
$$

PAZ047>061-062-071-231700-
EASTERN PENNSYLVANIA

CITY           SKY/WX    TMP DP  RH WIND       PRES   REMARKS
Philadelphia   MOSUNNY   37  18  46 NW9       30.14F WCI  30
Allentown      SUNNY     37  19  48 VRB7G17   30.12  WCI  32
Scranton       PTSUNNY   32  19  58 W8        30.11F WCI  25
$$

CTZ002-004>006-009-010-012-RIZ004-006-007-MAZ004-011-015-231700-
SOUTHERN NEW ENGLAND
 IN CT

CITY           SKY/WX    TMP DP  RH WIND       PRES   REMARKS
Bradley INTL   MOSUNNY   39  19  44 VRB5      30.06F
Hartford       SUNNY     37  19  48 W6        30.07F WCI  32
Danbury        SUNNY     37  19  48 NW8       30.08F WCI  31
Wtrbury/Oxford SUNNY     34  18  52 VRB7      30.05F WCI  28
Norwalk Harbor   N/A     34 N/A N/A NW9         N/A  WCI  26
Bridgeport     SUNNY     39  18  42 NW12      30.08F WCI  32
Meriden        SUNNY     38  19  46 VRB5      30.07F WCI  34
New Haven      SUNNY     39  18  42 NW8       30.08F WCI  33
Chester        FAIR      37  19  48 NW8       30.05F WCI  31
Groton         SUNNY     40  22  48 NW7       30.06F
Wilimantic     SUNNY     38  21  50 W7        30.06S WCI  33

 IN RI

CITY           SKY/WX    TMP DP  RH WIND       PRES   REMARKS
Providence     MOSUNNY   40  21  46 NW7       30.04F
Block Island   SUNNY     39  25  57 W9        30.06S WCI  33
Westerly       SUNNY     40  23  50 W8        30.06F WCI  34
 IN MA

CITY           SKY/WX    TMP DP  RH WIND       PRES   REMARKS
Boston         SUNNY     37  18  46 W13       30.01F WCI  29
Worcester      SUNNY     33  14  45 W10       29.98S WCI  25
Westfield      SUNNY     38  19  46 NW7       30.04F WCI  33
Provincetown   SUNNY     38  24  57 NW13      30.01S WCI  30
Nantucket      SUNNY     38  27  64 NW7       30.03F WCI  33
$$

ANZ330-335-338-340-345-350-353-355-231700-
COASTAL MARINE OBSERVATIONS


STATION/POSITION TIME  SKY/WX   TEMP    WIND        PRES    VSBY  WAVE
                                AIR SEA DIR/SP/G                  HT/PER
                 (UTC)          (F)     (DEG/KT/KT) (MB)    (MI)  (FT/S)
NY HARB ENTRANCE 1450            36 55  320/  8/ 12 1019.1          3/10
20 S FIRE ISLAND 1450            37 56  320/  8/ 14 1019.6          5/10
GREAT SOUTH BAY  1530            37 45  350/  6/ 10   N/A
HUDSON CANYON    1450            42 58  320/  6/ 10 1018.9          5/11
KINGS POINT      1542            35 48  360/  5/ 10 1020.2
EXECUTION ROCKS  1545            41     310/  6/ 12   N/A
WESTERN LI SOUND 1449            36     310/  8/ 10   N/A           0
CENTRAL LI SOUND NOT AVBL
ROBBINS REEF     1542            36     340/ 10/ 12 1020.0
$$


>>>>>>>>>>>>>>>>>>>>>>>>>>>> KEY <<<<<<<<<<<<<<<<<<<<<<<<<<<
>                                                          <
>     SKY/WX - Sky Condition/Present Weather               <
>     TMP    - Temperature in Fahrenheit                   <
>     DP     - Dew Point in Fahrenheit                     <
>     RH     - Relative Humidity in Percent                <
>     WIND   - Direction (from) and Speed in MPH           <
>     PRES   - Mean Sea Level Pressure (inches of Hg)      <
>     WCI    - Wind Chill Index                            <
>     VSB    - VISIBILITY IN MILES                         <
>     HX     - HEAT INDEX                                  <
>     TC     - TEMPERATURE IN CELSIUS                      <
>     VRB    - VARIABLE WIND DIRECTION                     <
>                                                          <
>>>>>>>>>>>>>>>>>>>>>>>>>>>> KEY <<<<<<<<<<<<<<<<<<<<<<<<<<<




USA.gov is the U.S. government's official web portal to all federal, state and local government web resources and services.